Flag for U.S.A. Weather past 2 weeks in San Jose, California, U.S.A.

Now
71 °F

Broken clouds.


Feels Like: 73 °F
Forecast: 64 / 78 °F
Wind: 6 mph from Southeast

Location: San Jose International Airport

Current Time: Aug 29, 2015 at 10:12:19 AM

Latest Report: Aug 29, 2015 at 8:53 AM


Visibility: 10 mi

Pressure: 29.98 "Hg

Humidity: 73%

Dew point: 62 °F

Location of San JoseLocation

Historic Weather in San Jose — Graph

°F

San Jose temperature yesterday

Maximum temperature yesterday: 94 °F (at 2:53 PM)
Minimum temperature yesterday: 66 °F (at 4:53 AM)
Average temperature yesterday: 77 °F

Past Weeks' High & Low Weather Summary

 TemperatureHumidityPressure
High97 °F (Aug 16, 2:53 PM)94% (Aug 29, 4:00 AM)30.09 "Hg (Aug 29, 4:00 AM)
Low59 °F (Aug 15, 5:53 AM)18% (Aug 27, 2:53 PM)29.79 "Hg (Aug 16, 4:53 PM)
Average71 °F64%29.93 "Hg
* Reported Aug 14 8:53 AM — Aug 29 8:53 AM, San Jose, Weather by CustomWeather, © 2015

Note: Actual official high and low records may vary slightly from our data, if they occured in-between our weather recording intervals... More about our weather records

Advertising

San Jose weather history for previous 24 hours

 ConditionsComfort  
Time TempWeatherWind HumidityBarometerVisibility
8:53 AM
Sat, Aug 29
71 °FBroken clouds.6 mph73%29.98 "Hg10 mi
7:53 AM68 °FPartly sunny.8 mph82%29.97 "Hg10 mi
6:53 AM68 °FPassing clouds.5 mph82%29.96 "Hg10 mi
5:53 AM67 °FPartly cloudy.3 mph85%29.94 "Hg10 mi
4:53 AM67 °FClear.7 mph87%29.93 "Hg10 mi
4:00 AM66 °FPassing clouds.3 mph94%29.94 "Hg10 mi
3:03 AM66 °FPassing clouds.6 mph88%29.94 "Hg10 mi
1:53 AM67 °FClear.3 mph90%29.93 "Hg10 mi
12:53 AM67 °FClear.5 mph87%29.92 "Hg10 mi
11:53 PM
Fri, Aug 28
67 °FPassing clouds.7 mph90%29.92 "Hg10 mi
10:53 PM68 °FPassing clouds.9 mph87%29.91 "Hg10 mi
9:53 PM69 °FPassing clouds.7 mph84%29.90 "Hg10 mi
8:53 PM72 °FPassing clouds.9 mph68%29.89 "Hg10 mi
7:53 PM75 °FScattered clouds.9 mph60%29.87 "Hg10 mi
6:53 PM79 °FBroken clouds.20 mph50%29.85 "Hg10 mi
5:53 PM86 °FScattered clouds.20 mph37%29.83 "Hg10 mi
4:53 PM91 °FBroken clouds.20 mph30%29.82 "Hg10 mi
3:53 PM94 °FScattered clouds.14 mph26%29.82 "Hg10 mi
2:53 PM94 °FScattered clouds.13 mph27%29.84 "Hg10 mi
1:53 PM92 °FScattered clouds.12 mph27%29.86 "Hg10 mi
12:53 PM92 °FScattered clouds.8 mph29%29.87 "Hg10 mi
11:53 AM89 °FBroken clouds.5 mph32%29.88 "Hg10 mi
10:53 AM83 °FBroken clouds.5 mph43%29.90 "Hg10 mi
Weather by CustomWeather, © 2015

See weather overviewHow to use our weather pages